Domov               UVHVVR             MKGP            O straneh              
ZDRAVSTVENO VARSTVO RASTLIN
  MREŽA AGROMET. POSTAJ
 ► PROGNOSTIČNA OBVESTILA
AGROMETEOROLOŠKI PODATKI -
ARSO
OBVLADOVANJE TVEGANJ ZARADI
NEUGODNIH VREMENSKIH RAZMER
  ► NARAVNE NESREČE
  ► SUŠA/MOČA
  ► NAMAKANJE
  ► ŽLED (gozdarstvo)
KARTOGRAFSKI PRIKAZI
SPLETNE POVEZAVE
PROJEKTI IN PUBLIKACIJE

AGROMETEOROLOŠKA MREŽA: VREMENSKE POSTAJE IN FENOLOŠKA OPAZOVANJA

Pregled podatkov za lokacijo Kostanjevica na Krki, meteorološka postaja 855712

Pregled senzorjev na lokaciji

ID Ime Zadnja
vrednost
Datum
zadnje
spremembe
Tip
senzorja
3850 Temperatura 2 m ( °C) 30,05 °C 28.6.2017 17:00 50YA
3851 Relativna vlaga 2 m (% RH) 49,37 % RH 28.6.2017 17:00 50YA
3852 Omočenost lista (U) 0 U 28.6.2017 17:00 A730WET
3853 Padavine 0.2 mm (mm) 0 mm 28.6.2017 17:00 Rain-O-Matic

Pregled podatkov zadnjih 24 ur

Zap.
št.
Datum in čas Kostanjevica na Krki
Omočenost
lista
Padavine
0.2
mm
Relativna
vlaga
2
m
Temperatura
2
m
0 28.6.2017 16:00 0 0 49,37 30,05
1 28.6.2017 15:30 0 0 48,11 30,38
2 28.6.2017 15:00 0 0 47,95 29,82
3 28.6.2017 14:30 0 0 47,54 31,85
4 28.6.2017 14:00 0 0 45,89 32,62
5 28.6.2017 13:30 0 0 47,48 32,33
6 28.6.2017 13:00 0 0 53,01 30,13
7 28.6.2017 12:30 0 0 49,59 31,29
8 28.6.2017 12:00 0 0 47,74 32,19
9 28.6.2017 11:30 0 0 46,37 32,52
10 28.6.2017 11:00 0 0 50,26 31,9
11 28.6.2017 10:30 0 0 57,25 29,79
12 28.6.2017 10:00 0 0 60,29 29,41
13 28.6.2017 09:30 0 0 63,33 28,21
14 28.6.2017 09:00 0 0 66,65 26,92
15 28.6.2017 08:30 0 0 69,87 26
16 28.6.2017 08:00 0 0 74,25 24,63
17 28.6.2017 07:30 0 0 78,63 22,86
18 28.6.2017 07:00 0 0 78,81 22,45
19 28.6.2017 06:30 8 0 87,81 20,52
20 28.6.2017 06:00 7 0 92,97 19,2
21 28.6.2017 05:30 7 0 99,57 17,72
22 28.6.2017 05:00 6 0 100 16,35
23 28.6.2017 04:30 9 0 100 16,18
24 28.6.2017 04:00 9 0 100 16,24
25 28.6.2017 03:30 7 0 100 15,73
26 28.6.2017 03:00 4 0 100 16,2
27 28.6.2017 02:30 3 0 100 16,21
28 28.6.2017 02:00 3 0 99,54 16,46
29 28.6.2017 01:30 3 0 97,13 16,85
30 28.6.2017 01:00 2 0 97,61 17,09
31 28.6.2017 00:30 2 0 97,39 17,21
32 28.6.2017 00:00 2 0 96,15 17,34
33 27.6.2017 23:30 2 0 96,85 17,38
34 27.6.2017 23:00 2 0 95,69 17,76
35 27.6.2017 22:30 2 0 91,83 18,38
36 27.6.2017 22:00 2 0 91,57 18,83
37 27.6.2017 21:30 2 0 92,25 19,17
38 27.6.2017 21:00 2 0 91,51 19,66
39 27.6.2017 20:30 1 0 88,3 20,49
40 27.6.2017 20:00 0 0 82,54 21,41
41 27.6.2017 19:30 0 0 76,24 23,14
42 27.6.2017 19:00 0 0 67,07 25,38
43 27.6.2017 18:30 0 0 59,33 27,09
44 27.6.2017 18:00 0 0 57,08 27,66
© 2011 Ministrstvo za kmetijstvo, gozdarstvo in prehrano. Vse pravice pridržane.